Simultaneous Nadir Overpasses (SNOs) Predictions

Prediction of SNOs between NOAA-19 and METOP-C Satellite Orbit:

Table of predicted SNOs for the next 14.0 days since TLE Epoch: 8/3/2024
Index Date (NOAA-19) Time (NOAA-19) Lat,Lon (NOAA-19) SZA (NOAA-19 ) Date (METOP-C) Time (METOP-C) Lat,Lon (METOP-C) SZA (METOP-C ) Distance(km) Time Diff (sec)
1 08/12/2024 09:37:02 77.15, 40.16 62.34 08/12/2024 09:38:06 77.14, 40.08 62.33 2.41 64
2 08/12/2024 10:27:55 -77.30,-151.88 117.49 08/12/2024 10:28:44 -77.30,-151.89 117.49 0.24 49
3 08/12/2024 11:18:50 77.55, 16.58 62.80 08/12/2024 11:19:18 77.55, 16.57 62.80 0.60 28
4 08/12/2024 12:09:44 -77.66,-175.63 117.08 08/12/2024 12:09:57 -77.66,-175.57 117.07 1.78 13
5 08/12/2024 13:00:38 77.94, -6.87 63.26 08/12/2024 13:00:30 77.95, -6.83 63.26 1.21 8
6 08/12/2024 13:51:28 -78.19, 161.81 116.45 08/12/2024 13:51:06 -78.18, 161.70 116.47 2.72 22
7 08/12/2024 14:42:28 78.24, -30.65 63.63 08/12/2024 14:41:44 78.25, -30.55 63.64 2.98 44



Historial Predications of SNOs between NOAA-19 and METOP-C
